Location: Glencliff
(36.1226°N, 86.7183°W)
Time: 05:06:05
(UTC+00:00)

Cosmos 1943 - Pass Details

Date: 25 August 2019
Orbit: 832 x 851 km, 71.0° (Epoch: 18 September)

Event Time Altitude Azimuth Distance (km) Brightness Sun altitude
Rises 10:22:13 0° 324° (NW) 3,422 6.2 -10.6°
Reaches altitude 10° 10:25:03 10° 312° (NW) 2,481 5.4 -10.0°
Maximum altitude 10:29:38 26° 258° (WSW) 1,626 4.1 -9.2°
Drops below altitude 10° 10:34:11 10° 204° (SSW) 2,461 5.2 -8.3°
Sets 10:37:00 0° 192° (SSW) 3,389 6.0 -7.8°
